STARLINK-2611 (48364 NORAD) Tracking and Keplerian Element Data

This shows tracking and keplerian element data for the satellite.

Feedback or suggestion? Click here.




ElementValue
Catalog48364
NameSTARLINK-2611
Epoch Orbit1389
Epoch Day214.77359461
Epoch Year2021
RAAN338.0388
Inclination53.0552
Eccentricity9.01E-05
Argument of Perigee114.6265
Mean Anonmoly245.4818
Mean Motion15.06391689
Decay Rate4.89E-06
L11 48364U 21038M 21214.77359461 .00000489 00000-0 51689-4 0 9995
L22 48364 53.0552 338.0388 0000901 114.6265 245.4818 15.06391689 13896

Live tracking and technical data element details for STARLINK-2611 (NORAD 48364). STARLINK-2611 can be tracked NOW for your location showing map with azimuth and elevation plus other details from your city location.

Track the satellite on the map from your city or location and see movement details for azimuth, elevation, latitude, longitude, range, height, and movement on the map or in text.







IsCatalogInMostPopularTable: catalog: 48364, numindb: 29
Update: records affected: 1



GetName: 48364 STARLINK-2611

Hit Count: updated at: Tue, 03 Aug 2021 23:11:03 GMT